Regional Weather Roundup
Issued by NWS

Home | Current Version | Previous Version | Text Only | Print | Product List | Glossary Off
Versions: 1 2 3 4 5 6 7 8 9 10 11 12 13 14 15 16 17 18 19 20 21 22 23 24 25 26 27 28 29 30 31 32 33 34 35 36 37 38 39 40 41 42 43 44 45 46 47 48 49 50

000
ASUS45 KPSR 051300
RWRAZ

ARIZONA HOURLY REGIONAL WEATHER ROUNDUP
NATIONAL WEATHER SERVICE PHOENIX AZ
600 AM MST SUN JUL 05 2015

NOTE: FAIR INDICATES FEW OR NO CLOUDS BELOW 12,000 FEET WITH NO
SIGNIFICANT WEATHER AND/OR OBSTRUCTIONS TO VISIBILITY.

AZZ001>003-036-051400-
NORTHWEST ARIZONA

CITY           SKY/WX    TMP DP  RH WIND       PRES   REMARKS
KINGMAN        CLEAR     75  51  43 S5        30.01R
$$

AZZ004>008-015-016-018-051400-
NORTH CENTRAL ARIZONA

CITY           SKY/WX    TMP DP  RH WIND       PRES   REMARKS
GRAND CANYON   PTCLDY    56  52  86 CALM      30.26R
WILLIAMS       CLOUDY    63  54  72 CALM      30.33R
PRESCOTT       MOCLDY    68  59  73 CALM      30.15R
FLAGSTAFF      NOT AVBL
PAYSON         CLOUDY    66  55  68 CALM      30.18R
PAGE           MOCLDY    77  49  37 CALM      30.05R
$$

AZZ009>014-017-051400-
NORTHEAST ARIZONA

CITY           SKY/WX    TMP DP  RH WIND       PRES   REMARKS
WINSLOW        NOT AVBL
SAINT JOHNS    MOCLDY    60  58  92 CALM      30.19R
WINDOW ROCK    CLOUDY    61  58  90 CALM      30.25R
SHOW LOW       CLOUDY    61  52  72 S5        30.25R
$$

AZZ023-051400-
GREATER PHOENIX AREA

CITY           SKY/WX    TMP DP  RH WIND       PRES   REMARKS
PHOENIX        MOCLDY    89  59  36 W9        29.87R
LUKE AFB       MOCLDY    86  61  42 SW10      29.86R
DEER VALLEY    MOCLDY    85  59  41 N3        29.89R
SCOTTSDALE     MOCLDY    87  58  37 CALM      29.91R
MESA-FALCON    MOCLDY    88  57  35 W7        29.89
MESA-GATEWAY   MOCLDY    88  57  35 NW5       29.91R
CHANDLER       MOCLDY    88  59  37 N5        29.89
$$

AZZ027-028-051400-
SOUTHWEST MARICOPA COUNTY AND PINAL COUNTY

CITY           SKY/WX    TMP DP  RH WIND       PRES   REMARKS
CASA GRANDE    CLOUDY    84  59  42 CALM      29.90R
GILA BEND      FAIR      81  58  45 E5        29.86R
$$

AZZ503-504-507>509-051400-
SOUTHEAST ARIZONA

CITY           SKY/WX    TMP DP  RH WIND       PRES   REMARKS
TUCSON         CLOUDY    82  62  50 S8        30.02R
DAVIS-MONTHAN  CLOUDY    81  61  51 SE8       30.01R
NOGALES        CLOUDY    71  62  73 S9        30.11R
SIERRA VISTA   CLOUDY    67  61  80 S8        30.16R
SAFFORD        CLOUDY    77  63  61 E6        30.02R
$$

AZZ020-021-025-026-031-051400-
SOUTHWEST ARIZONA

CITY           SKY/WX    TMP DP  RH WIND       PRES   REMARKS
YUMA           CLEAR     84  72  67 SE16      29.80R
$$

CAZ031-033-041-043-047-048-061-051400-
SOUTHERN CALIFORNIA

CITY           SKY/WX    TMP DP  RH WIND       PRES   REMARKS
DOWNTOWN L.A.  CLOUDY    66  58  75 CALM      29.94R
L.A. AIRPORT   CLOUDY    64  60  87 W7        29.96R
SAN DIEGO      CLOUDY    66  57  72 W3        29.96S
BURBANK        CLOUDY    65  58  78 CALM      29.95R HAZE
ONTARIO        CLOUDY    63  58  83 W7        29.95R FOG
RIVERSIDE      CLOUDY    64  59  83 CALM      29.96R HAZE
PALM SPRINGS   CLEAR     82  57  42 NW7       29.83R
EL CENTRO NAS  CLEAR     79  67  66 E5        29.79R
IMPERIAL       CLEAR     82  68  62 E5        29.77R
BLYTHE         CLEAR     86  63  45 S7        29.81R
$$

NVZ020-UTZ003-051400-
SOUTHERN NEVADA-UTAH

CITY           SKY/WX    TMP DP  RH WIND       PRES   REMARKS
LAS VEGAS      NOT AVBL
SALT LAKE CITY CLOUDY    77  61  57 S5        30.00R
$$

NMZ009-TXZ055-051400-
NEW MEXICO-WEST TEXAS

CITY           SKY/WX    TMP DP  RH WIND       PRES   REMARKS
ALBUQUERQUE    CLOUDY    66  58  75 E6        30.14S
EL PASO        PTCLDY    71  66  84 SE7       30.05R
$$


........................KEY........................
SKY/WX - SKY CONDITION/WEATHER
TMP    - TEMPERATURE IN FAHRENHEIT
DP     - DEW POINT IN FAHRENHEIT
RH     - RELATIVE HUMIDITY IN PERCENT
WIND   - DIRECTION AND SPEED IN MILES PER HOUR (MPH)
VRB    - VARIABLE WIND DIRECTION
PRES   - MEAN SEA LEVEL PRESSURE IN INCHES OF MERCURY
         F - FALLING PRESSURE   R - RISING PRESSURE
         S - STEADY PRESSURE
VSB    - VISIBILITY IN MILES
HX     - HEAT INDEX IN FAHRENHEIT
WCI    - WIND CHILL INDEX IN FAHRENHEIT
TC     - TEMPERATURE IN CELSIUS WHICH IS ALSO KNOWN AS
         TEMPERATURE IN CENTIGRADE
AFB    - AIR FORCE BASE
         LUKE AFB IS LUKE AIR FORCE BASE
         DAVIS-MONTHAN IS DAVIS-MONTHAN AIR FORCE BASE
NAS    - NAVAL AIR STATION
         EL CENTRO NAS IS EL CENTRO NAVAL AIR STATION
N/A    - NOT AVAILABLE



USA.gov is the U.S. government's official web portal to all federal, state and local government web resources and services.